{"data":{"norad_id":61859,"intl_designator":"2024-202Q","name":"STARLINK-32466","alt_names":[],"object_type":"PAYLOAD","status":"ACTIVE","operator":null,"country":"US","launch_date":"2024-11-07","launch_site_code":"AFETR","launch_vehicle":null,"mission":null,"orbit_class":"UNKNOWN","rcs_meters":null,"size_class":null,"mass_kg":null,"dimensions":null,"purposes":["comms"],"wikipedia_slug":null,"has_3d_model":false,"image_url":null,"decayed_at":null,"tle_current":{"epoch":"2026-09-21T13:29:42.828000Z","epoch_age_seconds":96729,"freshness":"FRESH","line1":"1 61859U 24202Q   26264.56230125  .00002835  00000+0  11245-3 0  9996","line2":"2 61859  43.0034 211.8171 0001018 270.6512  89.4223 15.27599038105293","mean_motion":15.27599038,"eccentricity":0.0001018,"inclination_deg":43.0034,"raan_deg":211.8171,"arg_perigee_deg":270.6512,"mean_anomaly_deg":89.4223,"bstar":0.00011245,"rev_number":10529,"period_min":94.265573895969,"perigee_km":482.29362706945,"apogee_km":483.69055295218,"semimajor_km":6861.1290900108,"source":"CELESTRAK","updated_at":"2026-09-22T09:00:49.442522Z"}}}